Wetterdaten: Samstag, 19.11.2016
Datum Zeit Temp. Auen Feucht Auen Luftdruck Regen Richtung Richtung Windben
19.11.2016 00:00 6,7 C 92 % 1014,2 hPa 0,0 mm O-SO 104 0,0 km/h (0 Bft)
19.11.2016 00:05 6,7 C 92 % 1014,1 hPa 0,0 mm O-SO 104 0,0 km/h (0 Bft)
19.11.2016 00:10 6,5 C 93 % 1014,4 hPa 0,0 mm O-SO 104 0,0 km/h (0 Bft)
19.11.2016 00:15 6,4 C 93 % 1014,3 hPa 0,0 mm O-SO 104 0,0 km/h (0 Bft)
19.11.2016 00:20 6,5 C 93 % 1014,3 hPa 0,0 mm O-SO 104 0,0 km/h (0 Bft)
19.11.2016 00:25 6,6 C 93 % 1014,2 hPa 0,0 mm O-SO 104 0,0 km/h (0 Bft)
19.11.2016 00:30 6,4 C 93 % 1014,4 hPa 0,0 mm O-SO 104 0,0 km/h (0 Bft)
19.11.2016 00:35 6,4 C 93 % 1014,2 hPa 0,0 mm O-SO 104 0,0 km/h (0 Bft)
19.11.2016 00:40 6,3 C 93 % 1014,3 hPa 0,0 mm O-SO 104 0,0 km/h (0 Bft)
19.11.2016 00:45 6,3 C 93 % 1014,2 hPa 0,0 mm O-SO 104 0,0 km/h (0 Bft)
19.11.2016 00:50 6,2 C 93 % 1014,3 hPa 0,0 mm O-SO 104 0,0 km/h (0 Bft)
19.11.2016 00:55 6,2 C 94 % 1014,2 hPa 0,0 mm O-SO 104 0,0 km/h (0 Bft)
19.11.2016 01:00 6,2 C 94 % 1014,2 hPa 0,0 mm O-SO 104 0,0 km/h (0 Bft)
19.11.2016 01:05 6,2 C 94 % 1014,1 hPa 0,0 mm O-SO 104 0,0 km/h (0 Bft)
19.11.2016 01:10 6,2 C 94 % 1014,1 hPa 0,0 mm O-SO 104 0,0 km/h (0 Bft)
19.11.2016 01:15 6,1 C 94 % 1014,1 hPa 0,0 mm O-SO 104 0,0 km/h (0 Bft)
19.11.2016 01:20 6,2 C 94 % 1014,0 hPa 0,0 mm O-SO 104 0,0 km/h (0 Bft)
19.11.2016 01:25 6,1 C 94 % 1014,0 hPa 0,0 mm O-SO 104 0,0 km/h (0 Bft)
19.11.2016 01:30 6,1 C 94 % 1014,0 hPa 0,0 mm O-SO 104 0,0 km/h (0 Bft)
19.11.2016 01:35 6,1 C 94 % 1013,9 hPa 0,0 mm O-SO 104 0,0 km/h (0 Bft)
19.11.2016 01:40 6,1 C 94 % 1013,9 hPa 0,0 mm O-SO 104 0,0 km/h (0 Bft)
19.11.2016 01:45 6,1 C 94 % 1013,9 hPa 0,0 mm O-SO 104 0,0 km/h (0 Bft)
19.11.2016 01:50 6,2 C 94 % 1013,7 hPa 0,0 mm O 92 3,2 km/h (1 Bft)
19.11.2016 01:55 6,2 C 94 % 1013,7 hPa 0,0 mm NO 38 4,8 km/h (1 Bft)
19.11.2016 02:00 6,2 C 94 % 1013,8 hPa 0,0 mm O-NO 70 0,0 km/h (0 Bft)
19.11.2016 02:05 6,2 C 94 % 1013,7 hPa 0,0 mm O-NO 70 0,0 km/h (0 Bft)
19.11.2016 02:10 6,2 C 94 % 1013,7 hPa 0,0 mm O-NO 70 0,0 km/h (0 Bft)
19.11.2016 02:15 6,2 C 94 % 1013,7 hPa 0,0 mm O-NO 70 0,0 km/h (0 Bft)
19.11.2016 02:20 6,2 C 94 % 1013,5 hPa 0,0 mm O-NO 70 1,6 km/h (1 Bft)
19.11.2016 02:25 6,2 C 94 % 1013,4 hPa 0,0 mm O-NO 70 0,0 km/h (0 Bft)
19.11.2016 02:30 6,2 C 94 % 1013,6 hPa 0,0 mm O-NO 70 0,0 km/h (0 Bft)
19.11.2016 02:35 6,1 C 94 % 1013,5 hPa 0,0 mm O-NO 69 0,0 km/h (0 Bft)
19.11.2016 02:40 6,1 C 94 % 1013,6 hPa 0,0 mm O-NO 70 0,0 km/h (0 Bft)
19.11.2016 02:45 6,1 C 94 % 1013,4 hPa 0,0 mm O-NO 70 0,0 km/h (0 Bft)
19.11.2016 02:50 6,1 C 94 % 1013,3 hPa 0,0 mm O-NO 70 0,0 km/h (0 Bft)
19.11.2016 02:55 6,1 C 94 % 1013,3 hPa 0,0 mm O-NO 70 0,0 km/h (0 Bft)
19.11.2016 03:00 6,0 C 94 % 1013,2 hPa 0,0 mm O-NO 70 1,6 km/h (1 Bft)
19.11.2016 03:05 5,9 C 94 % 1013,0 hPa 0,0 mm O-NO 70 0,0 km/h (0 Bft)
19.11.2016 03:10 5,9 C 94 % 1013,1 hPa 0,0 mm O-NO 70 0,0 km/h (0 Bft)
19.11.2016 03:15 5,9 C 94 % 1013,0 hPa 0,0 mm O-NO 70 0,0 km/h (0 Bft)
19.11.2016 03:20 5,9 C 94 % 1012,9 hPa 0,0 mm O-NO 70 0,0 km/h (0 Bft)
19.11.2016 03:25 5,9 C 94 % 1012,9 hPa 0,0 mm O-NO 70 0,0 km/h (0 Bft)
19.11.2016 03:30 5,9 C 94 % 1012,7 hPa 0,0 mm O-NO 69 0,0 km/h (0 Bft)
19.11.2016 03:35 5,9 C 94 % 1012,8 hPa 0,0 mm O-NO 70 0,0 km/h (0 Bft)
19.11.2016 03:40 5,8 C 94 % 1012,8 hPa 0,0 mm O-NO 70 0,0 km/h (0 Bft)
19.11.2016 03:45 5,7 C 94 % 1012,7 hPa 0,0 mm O-NO 70 0,0 km/h (0 Bft)
19.11.2016 03:50 5,8 C 95 % 1012,6 hPa 0,0 mm O-NO 70 0,0 km/h (0 Bft)
19.11.2016 03:55 5,7 C 95 % 1012,5 hPa 0,0 mm O-NO 70 1,6 km/h (1 Bft)
19.11.2016 04:00 5,7 C 95 % 1012,6 hPa 0,0 mm O-NO 70 0,0 km/h (0 Bft)
19.11.2016 04:05 5,8 C 95 % 1012,7 hPa 0,0 mm O-NO 70 0,0 km/h (0 Bft)
19.11.2016 04:10 5,8 C 95 % 1012,7 hPa 0,0 mm O-NO 70 1,6 km/h (1 Bft)
19.11.2016 04:15 5,9 C 95 % 1012,7 hPa 0,0 mm O-NO 70 0,0 km/h (0 Bft)
19.11.2016 04:20 5,8 C 95 % 1012,6 hPa 0,0 mm O-NO 70 0,0 km/h (0 Bft)
19.11.2016 04:25 5,8 C 95 % 1012,5 hPa 0,0 mm O-NO 69 1,6 km/h (1 Bft)
19.11.2016 04:30 5,8 C 95 % 1012,5 hPa 0,0 mm O-NO 69 1,6 km/h (1 Bft)
19.11.2016 04:35 5,7 C 95 % 1012,5 hPa 0,0 mm O-NO 69 0,0 km/h (0 Bft)
19.11.2016 04:40 5,7 C 95 % 1012,4 hPa 0,0 mm O-NO 69 0,0 km/h (0 Bft)
19.11.2016 04:45 5,8 C 95 % 1012,5 hPa 0,0 mm O-NO 69 1,6 km/h (1 Bft)
19.11.2016 04:50 5,8 C 95 % 1012,5 hPa 0,0 mm O-NO 69 1,6 km/h (1 Bft)
19.11.2016 04:55 5,8 C 95 % 1012,5 hPa 0,0 mm O-NO 69 0,0 km/h (0 Bft)
19.11.2016 05:00 5,8 C 95 % 1012,4 hPa 0,0 mm O-NO 70 0,0 km/h (0 Bft)
19.11.2016 05:05 5,8 C 95 % 1012,2 hPa 0,0 mm O-NO 70 0,0 km/h (0 Bft)
19.11.2016 05:10 5,8 C 95 % 1012,3 hPa 0,0 mm O-NO 69 0,0 km/h (0 Bft)
19.11.2016 05:15 5,8 C 95 % 1012,0 hPa 0,0 mm O-NO 69 0,0 km/h (0 Bft)
19.11.2016 05:20 5,8 C 95 % 1012,0 hPa 0,0 mm O-NO 69 0,0 km/h (0 Bft)
19.11.2016 05:25 5,7 C 95 % 1012,1 hPa 0,0 mm O-NO 70 0,0 km/h (0 Bft)
19.11.2016 05:30 5,7 C 95 % 1011,9 hPa 0,0 mm O-NO 69 0,0 km/h (0 Bft)
19.11.2016 05:35 5,8 C 95 % 1011,8 hPa 0,0 mm O-NO 69 0,0 km/h (0 Bft)
19.11.2016 05:40 5,7 C 95 % 1011,6 hPa 0,0 mm O-NO 69 0,0 km/h (0 Bft)
19.11.2016 05:45 5,6 C 95 % 1011,5 hPa 0,0 mm O-NO 69 0,0 km/h (0 Bft)
19.11.2016 05:50 5,7 C 95 % 1011,5 hPa 0,0 mm O-NO 69 0,0 km/h (0 Bft)
19.11.2016 05:55 5,7 C 95 % 1011,3 hPa 0,0 mm O-NO 69 0,0 km/h (0 Bft)
19.11.2016 06:00 5,6 C 95 % 1011,4 hPa 0,0 mm O-NO 70 0,0 km/h (0 Bft)
19.11.2016 06:05 5,6 C 95 % 1011,3 hPa 0,0 mm O-NO 69 0,0 km/h (0 Bft)
19.11.2016 06:10 5,6 C 95 % 1011,4 hPa 0,0 mm O-NO 69 0,0 km/h (0 Bft)
19.11.2016 06:15 5,6 C 95 % 1011,2 hPa 0,0 mm O-NO 70 0,0 km/h (0 Bft)
19.11.2016 06:20 5,5 C 95 % 1011,1 hPa 0,0 mm O-NO 69 0,0 km/h (0 Bft)
19.11.2016 06:25 5,5 C 95 % 1011,0 hPa 0,0 mm O-NO 69 0,0 km/h (0 Bft)
19.11.2016 06:30 5,4 C 95 % 1011,0 hPa 0,0 mm O-NO 70 0,0 km/h (0 Bft)
19.11.2016 06:35 5,4 C 95 % 1010,8 hPa 0,0 mm O-NO 70 0,0 km/h (0 Bft)
19.11.2016 06:40 5,3 C 95 % 1010,8 hPa 0,0 mm O-NO 69 0,0 km/h (0 Bft)
19.11.2016 06:45 5,3 C 95 % 1010,8 hPa 0,0 mm O-NO 70 0,0 km/h (0 Bft)
19.11.2016 06:50 5,4 C 95 % 1010,8 hPa 0,0 mm O-NO 69 0,0 km/h (0 Bft)
19.11.2016 06:55 5,3 C 95 % 1010,7 hPa 0,0 mm O-NO 69 0,0 km/h (0 Bft)
19.11.2016 07:00 5,2 C 95 % 1010,4 hPa 0,0 mm O-NO 69 0,0 km/h (0 Bft)
19.11.2016 07:05 5,1 C 95 % 1010,3 hPa 0,0 mm O-NO 69 0,0 km/h (0 Bft)
19.11.2016 07:10 5,2 C 95 % 1010,4 hPa 0,0 mm O-NO 69 1,6 km/h (1 Bft)
19.11.2016 07:15 5,2 C 95 % 1010,4 hPa 0,0 mm O-NO 69 3,2 km/h (1 Bft)
19.11.2016 07:20 5,2 C 95 % 1010,2 hPa 0,0 mm O-NO 69 1,6 km/h (1 Bft)
19.11.2016 07:25 5,2 C 95 % 1010,4 hPa 0,0 mm O-NO 70 0,0 km/h (0 Bft)
19.11.2016 07:30 5,1 C 95 % 1010,3 hPa 0,0 mm O-NO 69 0,0 km/h (0 Bft)
19.11.2016 07:35 5,0 C 95 % 1010,2 hPa 0,0 mm O-NO 69 0,0 km/h (0 Bft)
19.11.2016 07:40 5,0 C 95 % 1010,4 hPa 0,0 mm O-NO 70 0,0 km/h (0 Bft)
19.11.2016 07:45 5,1 C 95 % 1010,3 hPa 0,0 mm O-NO 70 0,0 km/h (0 Bft)
19.11.2016 07:50 5,2 C 95 % 1010,1 hPa 0,0 mm O-NO 69 0,0 km/h (0 Bft)
19.11.2016 07:55 5,3 C 95 % 1010,3 hPa 0,0 mm O-NO 69 1,6 km/h (1 Bft)
19.11.2016 08:00 5,1 C 95 % 1010,3 hPa 0,0 mm O 92 3,2 km/h (1 Bft)
19.11.2016 08:05 5,2 C 95 % 1010,4 hPa 0,0 mm O 92 0,0 km/h (0 Bft)
19.11.2016 08:10 5,3 C 95 % 1010,4 hPa 0,0 mm O 92 0,0 km/h (0 Bft)
19.11.2016 08:15 5,4 C 95 % 1010,3 hPa 0,0 mm O 92 0,0 km/h (0 Bft)
19.11.2016 08:20 5,6 C 96 % 1010,3 hPa 0,0 mm O 93 3,2 km/h (1 Bft)
19.11.2016 08:25 5,7 C 95 % 1010,4 hPa 0,0 mm O 93 1,6 km/h (1 Bft)
19.11.2016 08:30 5,7 C 95 % 1010,5 hPa 0,0 mm O 93 0,0 km/h (0 Bft)
19.11.2016 08:35 5,8 C 96 % 1010,1 hPa 0,0 mm O 93 1,6 km/h (1 Bft)
19.11.2016 08:40 5,8 C 95 % 1010,2 hPa 0,0 mm O 93 1,6 km/h (1 Bft)
19.11.2016 08:45 5,8 C 95 % 1010,2 hPa 0,0 mm O 93 0,0 km/h (0 Bft)
19.11.2016 08:50 5,9 C 95 % 1010,4 hPa 0,0 mm O 93 0,0 km/h (0 Bft)
19.11.2016 08:55 6,1 C 95 % 1010,4 hPa 0,0 mm O 93 1,6 km/h (1 Bft)
19.11.2016 09:00 6,1 C 95 % 1010,5 hPa 0,0 mm O 93 0,0 km/h (0 Bft)
19.11.2016 09:05 6,3 C 95 % 1010,2 hPa 0,0 mm O 93 0,0 km/h (0 Bft)
19.11.2016 09:10 6,2 C 95 % 1010,2 hPa 0,0 mm O 93 0,0 km/h (0 Bft)
19.11.2016 09:15 6,2 C 95 % 1010,3 hPa 0,0 mm O 93 0,0 km/h (0 Bft)
19.11.2016 09:20 6,4 C 95 % 1010,1 hPa 0,0 mm O 93 0,0 km/h (0 Bft)
19.11.2016 09:25 6,4 C 95 % 1009,9 hPa 0,0 mm O 93 0,0 km/h (0 Bft)
19.11.2016 09:30 6,5 C 95 % 1009,7 hPa 0,0 mm O 93 0,0 km/h (0 Bft)
19.11.2016 09:35 6,7 C 95 % 1009,5 hPa 0,0 mm SO 133 4,8 km/h (1 Bft)
19.11.2016 09:40 6,6 C 94 % 1009,7 hPa 0,0 mm SO 132 8,0 km/h (2 Bft)
19.11.2016 09:45 6,7 C 94 % 1009,9 hPa 0,0 mm O-NO 73 4,8 km/h (1 Bft)
19.11.2016 09:50 6,8 C 93 % 1009,9 hPa 0,0 mm O 95 4,8 km/h (1 Bft)
19.11.2016 09:55 6,8 C 93 % 1009,8 hPa 0,0 mm O 95 4,8 km/h (1 Bft)
19.11.2016 10:00 6,8 C 92 % 1009,7 hPa 0,0 mm O-SO 119 6,4 km/h (2 Bft)
19.11.2016 10:05 6,8 C 92 % 1009,6 hPa 0,0 mm O-SO 117 6,4 km/h (2 Bft)
19.11.2016 10:10 6,8 C 92 % 1009,5 hPa 0,0 mm SO 127 4,8 km/h (1 Bft)
19.11.2016 10:15 6,8 C 92 % 1009,7 hPa 0,0 mm SO 127 3,2 km/h (1 Bft)
19.11.2016 10:20 6,9 C 92 % 1009,6 hPa 0,0 mm O-SO 119 3,2 km/h (1 Bft)
19.11.2016 10:25 6,9 C 92 % 1009,6 hPa 0,0 mm O-SO 118 4,8 km/h (1 Bft)
19.11.2016 10:30 6,8 C 91 % 1009,5 hPa 0,0 mm SO 137 6,4 km/h (2 Bft)
19.11.2016 10:35 6,9 C 92 % 1009,6 hPa 0,0 mm SO 137 0,0 km/h (0 Bft)
19.11.2016 10:40 6,9 C 92 % 1009,6 hPa 0,0 mm SO 128 3,2 km/h (1 Bft)
19.11.2016 10:45 6,9 C 91 % 1009,7 hPa 0,0 mm SO 128 0,0 km/h (0 Bft)
19.11.2016 10:50 7,1 C 91 % 1009,7 hPa 0,0 mm SO 131 1,6 km/h (1 Bft)
19.11.2016 10:55 7,1 C 91 % 1009,6 hPa 0,0 mm SO 131 0,0 km/h (0 Bft)
19.11.2016 11:00 7,0 C 91 % 1009,5 hPa 0,0 mm SO 131 0,0 km/h (0 Bft)
19.11.2016 11:05 7,2 C 91 % 1009,5 hPa 0,0 mm SO 131 0,0 km/h (0 Bft)
19.11.2016 11:10 7,2 C 91 % 1009,4 hPa 0,0 mm SO 131 1,6 km/h (1 Bft)
19.11.2016 11:15 7,3 C 91 % 1009,5 hPa 0,0 mm S 191 1,6 km/h (1 Bft)
19.11.2016 11:20 7,3 C 91 % 1009,5 hPa 0,0 mm W 259 6,4 km/h (2 Bft)
19.11.2016 11:25 7,3 C 91 % 1009,4 hPa 0,0 mm W 272 6,4 km/h (2 Bft)
19.11.2016 11:30 7,4 C 91 % 1009,5 hPa 0,0 mm W 267 6,4 km/h (2 Bft)
19.11.2016 11:35 7,4 C 91 % 1009,4 hPa 0,0 mm W 261 6,4 km/h (2 Bft)
19.11.2016 11:40 7,4 C 91 % 1009,5 hPa 0,0 mm W-SW 256 6,4 km/h (2 Bft)
19.11.2016 11:45 7,3 C 92 % 1009,6 hPa 0,0 mm W 271 9,7 km/h (2 Bft)
19.11.2016 11:50 7,3 C 92 % 1009,5 hPa 0,0 mm W 259 9,7 km/h (2 Bft)
19.11.2016 11:55 7,2 C 92 % 1009,5 hPa 0,0 mm W 263 8,0 km/h (2 Bft)
19.11.2016 12:00 7,2 C 92 % 1009,5 hPa 0,0 mm W 271 6,4 km/h (2 Bft)
19.11.2016 12:05 7,1 C 92 % 1009,6 hPa 0,0 mm W 279 8,0 km/h (2 Bft)
19.11.2016 12:10 7,1 C 92 % 1009,6 hPa 0,0 mm W 263 9,7 km/h (2 Bft)
19.11.2016 12:15 7,1 C 92 % 1009,8 hPa 0,0 mm W 274 8,0 km/h (2 Bft)
19.11.2016 12:20 7,1 C 92 % 1009,8 hPa 0,0 mm W 275 9,7 km/h (2 Bft)
19.11.2016 12:25 7,0 C 92 % 1009,9 hPa 0,0 mm W 267 9,7 km/h (2 Bft)
19.11.2016 12:30 7,1 C 92 % 1010,0 hPa 0,0 mm W 267 8,0 km/h (2 Bft)
19.11.2016 12:35 7,0 C 92 % 1010,0 hPa 0,0 mm W 263 8,0 km/h (2 Bft)
19.11.2016 12:40 7,1 C 92 % 1010,1 hPa 0,0 mm W 276 4,8 km/h (1 Bft)
19.11.2016 12:45 7,2 C 92 % 1010,0 hPa 0,0 mm W 276 4,8 km/h (1 Bft)
19.11.2016 12:50 7,3 C 92 % 1009,9 hPa 0,0 mm W-SW 254 9,7 km/h (2 Bft)
19.11.2016 12:55 7,2 C 91 % 1010,0 hPa 0,0 mm W 267 9,7 km/h (2 Bft)
19.11.2016 13:00 7,2 C 91 % 1010,0 hPa 0,0 mm W-SW 254 8,0 km/h (2 Bft)
19.11.2016 13:05 7,2 C 91 % 1010,1 hPa 0,0 mm W-NW 286 4,8 km/h (1 Bft)
19.11.2016 13:10 7,2 C 91 % 1010,2 hPa 0,0 mm W 270 6,4 km/h (2 Bft)
19.11.2016 13:15 7,2 C 91 % 1010,1 hPa 0,0 mm W 277 6,4 km/h (2 Bft)
19.11.2016 13:20 7,3 C 91 % 1010,1 hPa 0,0 mm W 277 4,8 km/h (1 Bft)
19.11.2016 13:25 7,2 C 91 % 1010,0 hPa 0,0 mm W 277 1,6 km/h (1 Bft)
19.11.2016 13:30 7,2 C 91 % 1010,1 hPa 0,0 mm W 277 1,6 km/h (1 Bft)
19.11.2016 13:35 7,2 C 91 % 1010,0 hPa 0,0 mm W 277 0,0 km/h (0 Bft)
19.11.2016 13:40 7,3 C 91 % 1010,0 hPa 0,0 mm W 277 0,0 km/h (0 Bft)
19.11.2016 13:45 7,2 C 91 % 1010,1 hPa 0,0 mm W 261 6,4 km/h (2 Bft)
19.11.2016 13:50 7,2 C 91 % 1010,2 hPa 0,0 mm W 261 3,2 km/h (1 Bft)
19.11.2016 13:55 7,3 C 92 % 1010,3 hPa 0,0 mm W 261 3,2 km/h (1 Bft)
19.11.2016 14:00 7,3 C 92 % 1010,4 hPa 0,0 mm W 263 6,4 km/h (2 Bft)
19.11.2016 14:05 7,3 C 92 % 1010,5 hPa 0,0 mm W-NW 285 9,7 km/h (2 Bft)
19.11.2016 14:10 7,3 C 92 % 1010,5 hPa 0,0 mm W 280 3,2 km/h (1 Bft)
19.11.2016 14:15 7,3 C 92 % 1010,7 hPa 0,0 mm W 259 6,4 km/h (2 Bft)
19.11.2016 14:20 7,3 C 92 % 1011,0 hPa 0,0 mm W-SW 253 11,3 km/h (2 Bft)
19.11.2016 14:25 7,3 C 92 % 1011,1 hPa 0,0 mm W-SW 243 19,3 km/h (3 Bft)
19.11.2016 14:30 7,2 C 91 % 1011,2 hPa 0,0 mm W-SW 254 17,7 km/h (3 Bft)
19.11.2016 14:35 7,2 C 91 % 1011,3 hPa 0,0 mm W 273 20,9 km/h (4 Bft)
19.11.2016 14:40 7,2 C 90 % 1011,3 hPa 0,0 mm SW 236 19,3 km/h (3 Bft)
19.11.2016 14:45 7,2 C 90 % 1011,2 hPa 0,0 mm W-SW 258 17,7 km/h (3 Bft)
19.11.2016 14:50 7,2 C 89 % 1011,4 hPa 0,0 mm W-SW 254 19,3 km/h (3 Bft)
19.11.2016 14:55 7,2 C 88 % 1011,6 hPa 0,0 mm W 261 16,1 km/h (3 Bft)
19.11.2016 15:00 7,1 C 87 % 1011,8 hPa 0,0 mm W-NW 302 22,5 km/h (4 Bft)
19.11.2016 15:05 7,1 C 86 % 1011,9 hPa 0,0 mm W-SW 254 20,9 km/h (4 Bft)
19.11.2016 15:10 7,1 C 86 % 1012,2 hPa 0,0 mm W-NW 293 16,1 km/h (3 Bft)
19.11.2016 15:15 7,1 C 86 % 1012,3 hPa 0,0 mm W-NW 288 16,1 km/h (3 Bft)
19.11.2016 15:20 7,1 C 86 % 1012,4 hPa 0,0 mm W 259 12,9 km/h (3 Bft)
19.11.2016 15:25 7,1 C 86 % 1012,6 hPa 0,0 mm W-NW 292 19,3 km/h (3 Bft)
19.11.2016 15:30 7,0 C 86 % 1012,8 hPa 0,0 mm W 259 24,1 km/h (4 Bft)
19.11.2016 15:35 6,9 C 85 % 1012,9 hPa 0,0 mm W 263 25,7 km/h (4 Bft)
19.11.2016 15:40 6,7 C 85 % 1013,0 hPa 0,0 mm W 281 22,5 km/h (4 Bft)
19.11.2016 15:45 6,6 C 86 % 1013,2 hPa 0,0 mm W-SW 240 19,3 km/h (3 Bft)
19.11.2016 15:50 6,4 C 86 % 1013,4 hPa 0,0 mm W 265 20,9 km/h (4 Bft)
19.11.2016 15:55 6,3 C 86 % 1013,4 hPa 0,2 mm W 275 19,3 km/h (3 Bft)
19.11.2016 16:00 6,1 C 86 % 1013,4 hPa 0,0 mm SW 234 22,5 km/h (4 Bft)
19.11.2016 16:05 6,1 C 87 % 1013,4 hPa 0,0 mm W-NW 289 22,5 km/h (4 Bft)
19.11.2016 16:10 6,0 C 87 % 1013,4 hPa 0,0 mm W-SW 258 16,1 km/h (3 Bft)
19.11.2016 16:15 5,9 C 87 % 1013,6 hPa 0,0 mm W-SW 248 16,1 km/h (3 Bft)
19.11.2016 16:20 5,8 C 87 % 1013,9 hPa 0,0 mm W-SW 257 20,9 km/h (4 Bft)
19.11.2016 16:25 5,8 C 87 % 1013,7 hPa 0,0 mm SW 234 12,9 km/h (3 Bft)
19.11.2016 16:30 5,8 C 88 % 1014,0 hPa 0,0 mm W-NW 302 16,1 km/h (3 Bft)
19.11.2016 16:35 5,7 C 88 % 1014,1 hPa 0,0 mm W-SW 244 20,9 km/h (4 Bft)
19.11.2016 16:40 5,7 C 88 % 1014,2 hPa 0,0 mm SW 236 17,7 km/h (3 Bft)
19.11.2016 16:45 5,7 C 88 % 1014,4 hPa 0,0 mm W 273 14,5 km/h (3 Bft)
19.11.2016 16:50 5,6 C 89 % 1014,4 hPa 0,0 mm W-SW 252 24,1 km/h (4 Bft)
19.11.2016 16:55 5,6 C 89 % 1014,7 hPa 0,0 mm W 269 22,5 km/h (4 Bft)
19.11.2016 17:00 5,6 C 89 % 1014,8 hPa 0,0 mm W 265 11,3 km/h (2 Bft)
19.11.2016 17:05 5,5 C 89 % 1015,0 hPa 0,0 mm W 274 17,7 km/h (3 Bft)
19.11.2016 17:10 5,4 C 89 % 1015,0 hPa 0,2 mm W-NW 287 16,1 km/h (3 Bft)
19.11.2016 17:15 5,4 C 89 % 1015,0 hPa 0,0 mm W-SW 244 20,9 km/h (4 Bft)
19.11.2016 17:20 5,3 C 90 % 1015,1 hPa 0,0 mm W-SW 244 14,5 km/h (3 Bft)
19.11.2016 17:25 5,3 C 90 % 1015,2 hPa 0,0 mm W 264 6,4 km/h (2 Bft)
19.11.2016 17:30 5,2 C 90 % 1015,3 hPa 0,0 mm W 270 11,3 km/h (2 Bft)
19.11.2016 17:35 5,2 C 90 % 1015,4 hPa 0,2 mm W 270 16,1 km/h (3 Bft)
19.11.2016 17:40 5,1 C 90 % 1015,6 hPa 0,2 mm W 270 17,7 km/h (3 Bft)
19.11.2016 17:45 5,1 C 90 % 1015,6 hPa 0,0 mm W 270 12,9 km/h (3 Bft)
19.11.2016 17:50 5,0 C 91 % 1015,6 hPa 0,0 mm W 270 9,7 km/h (2 Bft)
19.11.2016 17:55 5,0 C 91 % 1015,8 hPa 0,2 mm W 270 9,7 km/h (2 Bft)
19.11.2016 18:00 4,9 C 91 % 1015,9 hPa 0,0 mm W 270 6,4 km/h (2 Bft)
19.11.2016 18:05 4,9 C 92 % 1015,8 hPa 0,0 mm W 270 8,0 km/h (2 Bft)
19.11.2016 18:10 4,8 C 92 % 1015,9 hPa 0,2 mm W 270 9,7 km/h (2 Bft)
19.11.2016 18:15 4,8 C 92 % 1016,1 hPa 0,0 mm W 270 11,3 km/h (2 Bft)
19.11.2016 18:20 4,8 C 92 % 1016,1 hPa 0,0 mm W-SW 247 9,7 km/h (2 Bft)
19.11.2016 18:25 4,8 C 92 % 1015,9 hPa 0,0 mm W 270 8,0 km/h (2 Bft)
19.11.2016 18:30 4,8 C 93 % 1016,1 hPa 0,0 mm W 270 6,4 km/h (2 Bft)
19.11.2016 18:35 4,8 C 93 % 1016,1 hPa 0,0 mm W 270 8,0 km/h (2 Bft)
19.11.2016 18:40 4,8 C 93 % 1016,2 hPa 0,0 mm W 270 6,4 km/h (2 Bft)
19.11.2016 18:45 4,7 C 93 % 1016,4 hPa 0,0 mm W 270 6,4 km/h (2 Bft)
19.11.2016 18:50 4,7 C 93 % 1016,5 hPa 0,0 mm W 270 16,1 km/h (3 Bft)
19.11.2016 18:55 4,7 C 92 % 1016,7 hPa 0,0 mm W 270 16,1 km/h (3 Bft)
19.11.2016 19:00 4,7 C 92 % 1016,8 hPa 0,0 mm W 270 14,5 km/h (3 Bft)
19.11.2016 19:05 4,8 C 91 % 1016,9 hPa 0,0 mm W 270 9,7 km/h (2 Bft)
19.11.2016 19:10 4,7 C 91 % 1016,8 hPa 0,0 mm W 270 12,9 km/h (3 Bft)
19.11.2016 19:15 4,8 C 90 % 1016,9 hPa 0,0 mm W 270 8,0 km/h (2 Bft)
19.11.2016 19:20 4,8 C 90 % 1016,9 hPa 0,0 mm W-NW 292 6,4 km/h (2 Bft)
19.11.2016 19:25 4,7 C 90 % 1017,1 hPa 0,0 mm W 270 11,3 km/h (2 Bft)
19.11.2016 19:30 4,7 C 90 % 1017,0 hPa 0,0 mm W 270 6,4 km/h (2 Bft)
19.11.2016 19:35 4,7 C 90 % 1017,0 hPa 0,0 mm W 270 6,4 km/h (2 Bft)
19.11.2016 19:40 4,7 C 90 % 1017,2 hPa 0,0 mm W 270 8,0 km/h (2 Bft)
19.11.2016 19:45 4,7 C 90 % 1017,1 hPa 0,0 mm W-NW 292 8,0 km/h (2 Bft)
19.11.2016 19:50 4,7 C 90 % 1017,1 hPa 0,0 mm W 270 4,8 km/h (1 Bft)
19.11.2016 19:55 4,7 C 90 % 1017,1 hPa 0,0 mm W-NW 292 8,0 km/h (2 Bft)
19.11.2016 20:00 4,7 C 89 % 1016,9 hPa 0,0 mm W-NW 292 4,8 km/h (1 Bft)
19.11.2016 20:05 4,8 C 88 % 1016,9 hPa 0,0 mm W-NW 292 3,2 km/h (1 Bft)
19.11.2016 20:10 4,7 C 89 % 1016,9 hPa 0,0 mm N-NO 22 8,0 km/h (2 Bft)
19.11.2016 20:15 4,6 C 89 % 1016,8 hPa 0,0 mm W-SW 247 4,8 km/h (1 Bft)
19.11.2016 20:20 4,6 C 90 % 1016,7 hPa 0,0 mm W-SW 247 4,8 km/h (1 Bft)
19.11.2016 20:25 4,4 C 90 % 1016,5 hPa 0,0 mm W-SW 247 6,4 km/h (2 Bft)
19.11.2016 20:30 4,3 C 90 % 1016,6 hPa 0,0 mm N 360 6,4 km/h (2 Bft)
19.11.2016 20:35 4,2 C 90 % 1016,4 hPa 0,0 mm N 360 3,2 km/h (1 Bft)
19.11.2016 20:40 4,1 C 90 % 1016,4 hPa 0,0 mm N 360 3,2 km/h (1 Bft)
19.11.2016 20:45 4,1 C 91 % 1016,3 hPa 0,0 mm N 0 0,0 km/h (0 Bft)
19.11.2016 20:50 3,8 C 90 % 1016,2 hPa 0,0 mm S 180 3,2 km/h (1 Bft)
19.11.2016 20:55 3,7 C 91 % 1016,2 hPa 0,0 mm N-NO 22 6,4 km/h (2 Bft)
19.11.2016 21:00 3,3 C 90 % 1016,1 hPa 0,0 mm N-NO 22 1,6 km/h (1 Bft)
19.11.2016 21:05 3,1 C 91 % 1016,2 hPa 0,0 mm W-NW 292 6,4 km/h (2 Bft)
19.11.2016 21:10 3,3 C 92 % 1016,1 hPa 0,0 mm S 180 8,0 km/h (2 Bft)
19.11.2016 21:15 3,6 C 90 % 1016,2 hPa 0,0 mm W 270 4,8 km/h (1 Bft)
19.11.2016 21:20 3,7 C 89 % 1016,1 hPa 0,0 mm N 0 0,0 km/h (0 Bft)
19.11.2016 21:25 3,9 C 87 % 1016,0 hPa 0,0 mm N 0 0,0 km/h (0 Bft)
19.11.2016 21:30 3,7 C 87 % 1016,1 hPa 0,0 mm W 270 4,8 km/h (1 Bft)
19.11.2016 21:35 3,3 C 88 % 1015,8 hPa 0,0 mm W 270 3,2 km/h (1 Bft)
19.11.2016 21:40 3,3 C 89 % 1015,7 hPa 0,0 mm W 270 3,2 km/h (1 Bft)
19.11.2016 21:45 3,2 C 89 % 1015,7 hPa 0,0 mm W 270 4,8 km/h (1 Bft)
19.11.2016 21:50 3,1 C 90 % 1015,8 hPa 0,0 mm W 270 3,2 km/h (1 Bft)
19.11.2016 21:55 2,8 C 90 % 1015,7 hPa 0,0 mm W 270 1,6 km/h (1 Bft)
19.11.2016 22:00 2,6 C 90 % 1015,7 hPa 0,0 mm N 0 0,0 km/h (0 Bft)
19.11.2016 22:05 2,2 C 91 % 1015,7 hPa 0,0 mm N 0 0,0 km/h (0 Bft)
19.11.2016 22:10 2,1 C 92 % 1015,6 hPa 0,0 mm W 270 3,2 km/h (1 Bft)
19.11.2016 22:15 2,2 C 92 % 1015,7 hPa 0,0 mm W 270 3,2 km/h (1 Bft)
19.11.2016 22:20 2,2 C 92 % 1015,6 hPa 0,0 mm N 0 0,0 km/h (0 Bft)
19.11.2016 22:25 2,1 C 93 % 1015,5 hPa 0,0 mm N 0 0,0 km/h (0 Bft)
19.11.2016 22:30 1,9 C 93 % 1015,6 hPa 0,0 mm N 0 0,0 km/h (0 Bft)
19.11.2016 22:35 1,8 C 93 % 1015,4 hPa 0,0 mm W 270 1,6 km/h (1 Bft)
19.11.2016 22:40 1,8 C 93 % 1015,3 hPa 0,0 mm N 0 0,0 km/h (0 Bft)
19.11.2016 22:45 1,8 C 93 % 1015,2 hPa 0,0 mm W 270 1,6 km/h (1 Bft)
19.11.2016 22:50 1,8 C 94 % 1015,1 hPa 0,0 mm W 270 3,2 km/h (1 Bft)
19.11.2016 22:55 1,8 C 94 % 1015,0 hPa 0,0 mm W 270 3,2 km/h (1 Bft)
19.11.2016 23:00 1,6 C 93 % 1015,0 hPa 0,0 mm N 0 0,0 km/h (0 Bft)
19.11.2016 23:05 1,3 C 94 % 1014,8 hPa 0,0 mm N 0 0,0 km/h (0 Bft)
19.11.2016 23:10 1,3 C 94 % 1014,9 hPa 0,0 mm W 270 4,8 km/h (1 Bft)
19.11.2016 23:15 1,3 C 94 % 1014,7 hPa 0,0 mm W 270 4,8 km/h (1 Bft)
19.11.2016 23:20 1,4 C 94 % 1014,8 hPa 0,0 mm W 270 1,6 km/h (1 Bft)
19.11.2016 23:25 1,3 C 94 % 1014,6 hPa 0,0 mm W 270 3,2 km/h (1 Bft)
19.11.2016 23:30 1,3 C 94 % 1014,6 hPa 0,0 mm N 0 0,0 km/h (0 Bft)
19.11.2016 23:35 1,0 C 94 % 1014,5 hPa 0,0 mm W 270 3,2 km/h (1 Bft)
19.11.2016 23:40 0,9 C 94 % 1014,4 hPa 0,0 mm W 270 3,2 km/h (1 Bft)
19.11.2016 23:45 0,9 C 95 % 1014,4 hPa 0,0 mm W 270 1,6 km/h (1 Bft)
19.11.2016 23:50 0,9 C 95 % 1014,4 hPa 0,0 mm N 0 0,0 km/h (0 Bft)
19.11.2016 23:55 0,7 C 94 % 1014,5 hPa 0,0 mm W 270 1,6 km/h (1 Bft)
_ Min-Zeit 23:55 15:35 11:10 - - - 00:00
Minimum _ 0,7 C 85 % 1009,4 hPa - - - 0,0 km/h (0 Bft)
_ Max-Zeit 11:25 08:20 19:40 15:55 - - 15:35
Maximum _ 7,4 C 96 % 1017,2 hPa 0,2 mm - - 25,7 km/h
W-SW (4 Bft)
Durchschnitt _ 5,5 C 92 % 1012,8 hPa #1,2 mm W - 5,1 km/h (1 Bft)